AB8YS Weather Reports


Display with metric or nautical units.
time (UTC)temp
F
wind
direction
speed
MPH
gust
MPH
rain 1hr
in
rain 24hr
in
rain mn
in
humidity
%
barometer
mb
20260905151507 79 328 0.0 1.0 0.00 0.00 0.00 77 1012.7
20260905150002 78 209 0.0 1.0 0.00 0.00 0.00 78 1012.3
20260905144601 77 259 0.0 1.0 0.00 0.00 0.00 82 1012.4
20260905143055 75 256 0.0 1.0 0.00 0.00 0.00 85 1012.3
20260905141550 72 256 0.0 1.0 0.00 0.00 0.00 91 1011.7
20260905140049 71 255 0.0 1.0 0.00 0.00 0.00 93 1011.1
20260905134548 69 240 0.0 0.0 0.00 0.00 0.00 95 1012.1
20260905133046 69 240 0.0 1.0 0.00 0.00 0.00 94 1012.5
20260905131546 68 253 0.0 1.0 0.00 0.00 0.00 95 1012.9
20260905130046 68 252 0.0 2.0 0.00 0.00 0.00 96 1013.0
20260905124546 67 56 0.0 1.0 0.00 0.00 0.00 96 1013.3
20260905123044 67 75 0.0 0.0 0.00 0.00 0.00 96 1013.4
20260905121544 67 68 0.0 0.0 0.00 0.00 0.00 96 1013.5
20260905120044 67 51 0.0 2.0 0.00 0.00 0.00 96 1013.9
20260905114544 67 84 0.0 3.0 0.00 0.00 0.00 96 1013.6
20260905113041 67 109 0.0 0.0 0.00 0.00 0.00 96 1013.9
20260905111549 67 42 0.0 6.0 0.00 0.00 0.00 96 1013.8
20260905110041 66 73 0.0 4.0 0.00 0.00 0.00 96 1014.1
20260905104542 66 113 0.0 5.0 0.00 0.00 0.00 96 1014.1
20260905103046 66 49 0.0 1.0 0.00 0.00 0.00 96 1014.5
20260905101539 67 39 0.0 6.0 0.00 0.00 0.00 95 1014.9
20260905100036 67 51 0.0 8.0 0.00 0.00 0.00 93 1014.5
20260905094536 69 34 2.0 9.0 0.00 0.00 0.00 89 1014.8
20260905093028 72 307 3.0 15.0 0.00 0.00 0.00 86 1014.6
20260905091556 73 68 0.0 1.0 0.00 0.00 0.00 93 1012.8
20260905090023 72 17 0.0 0.0 0.00 0.00 0.00 94 1012.2
20260905084522 72 258 0.0 0.0 0.00 0.00 0.00 94 1011.5
20260905083122 72 258 0.0 0.0 0.00 0.00 0.00 94 1011.5
20260905081521 72 258 0.0 0.0 0.00 0.00 0.00 94 1011.6
20260905080020 72 258 0.0 0.0 0.00 0.00 0.00 95 1011.5
20260905074521 72 258 0.0 0.0 0.00 0.00 0.00 95 1011.7
20260905073020 72 258 0.0 0.0 0.00 0.00 0.00 95 1011.5
20260905071520 71 258 0.0 0.0 0.00 0.00 0.00 95 1011.3
20260905070023 71 258 0.0 0.0 0.00 0.00 0.00 96 1011.2
20260905064519 71 258 0.0 1.0 0.00 0.00 0.00 97 1011.3
20260905063015 71 257 0.0 0.0 0.00 0.00 0.00 97 1011.7
20260905061513 71 257 0.0 0.0 0.00 0.00 0.00 97 1011.9
20260905060013 71 257 0.0 0.0 0.00 0.00 0.00 97 1012.2
20260905054515 71 257 0.0 0.0 0.00 0.00 0.00 97 1012.3
20260905053007 71 257 0.0 0.0 0.00 0.00 0.00 97 1012.6
20260905051510 71 257 0.0 0.0 0.00 0.00 0.00 96 1012.7
20260905050002 72 257 0.0 0.0 0.00 0.00 0.00 96 1012.8
20260905044601 72 257 0.0 0.0 0.00 0.00 0.00 96 1013.0
20260905043059 72 257 0.0 0.0 0.00 0.00 0.00 96 1013.1
20260905041603 72 257 0.0 0.0 0.00 0.00 0.00 96 1013.0
20260905040057 72 257 0.0 0.0 0.00 0.00 0.00 96 1013.1
20260905034609 72 257 0.0 0.0 0.00 0.00 0.00 96 1013.2
20260905033059 72 257 0.0 0.0 0.00 0.00 0.00 95 1013.1
20260905031555 72 257 0.0 0.0 0.00 0.00 0.00 95 1013.1
20260905030054 72 257 0.0 0.0 0.00 0.00 0.00 95 1013.1
20260905024557 72 257 0.0 0.0 0.00 0.00 0.00 95 1012.9
20260905023052 73 257 0.0 0.0 0.00 0.00 0.00 94 1012.9
20260905021556 73 257 0.0 0.0 0.00 0.00 0.00 94 1012.9
20260905020052 73 257 0.0 0.0 0.00 0.00 0.00 93 1012.8
20260905014552 73 257 0.0 0.0 0.00 0.00 0.00 92 1012.6
20260905013051 73 257 0.0 0.0 0.00 0.00 0.00 92 1012.4
20260905011550 74 257 0.0 0.0 0.00 0.00 0.00 91 1012.2
20260905010049 74 257 0.0 0.0 0.00 0.00 0.00 90 1012.3
20260905004551 74 257 0.0 0.0 0.00 0.00 0.00 89 1012.0
20260905003049 75 257 0.0 0.0 0.00 0.00 0.00 88 1011.8
20260905001600 75 257 0.0 0.0 0.00 0.00 0.00 87 1011.8
20260905000106 76 257 0.0 0.0 0.00 0.00 0.00 85 1011.7
20260904234548 76 257 0.0 0.0 0.00 0.00 0.00 85 1011.7
20260904233101 77 257 0.0 0.0 0.00 0.00 0.00 86 1011.8
20260904231554 77 257 0.0 0.0 0.00 0.00 0.00 85 1011.8
20260904230048 77 257 0.0 0.0 0.00 0.00 0.00 85 1012.0
20260904224549 77 257 0.0 0.0 0.00 0.00 0.00 87 1012.3
20260904223056 76 257 0.0 0.0 0.00 0.00 0.00 88 1012.6
20260904221541 76 257 0.0 0.0 0.00 0.00 0.00 89 1012.6
20260904220042 74 257 0.0 0.0 0.00 0.00 0.00 92 1012.4
20260904214541 73 260 0.0 1.0 0.00 0.00 0.00 91 1012.2
20260904213042 73 261 0.0 0.0 0.00 0.00 0.00 92 1013.0
20260904211541 73 273 0.0 0.0 0.00 0.00 0.00 92 1012.7
20260904210049 73 273 0.0 1.0 0.00 0.00 0.00 90 1013.3
20260904204538 74 51 0.0 2.0 0.00 0.00 0.00 88 1013.1
20260904201542 82 320 2.0 11.0 0.00 0.00 0.00 69 1015.0
20260904200039 93 280 2.0 6.0 0.00 0.00 0.00 51 1013.4
20260904194538 95 270 0.0 2.0 0.00 0.00 0.00 56 1012.6
20260904193039 95 314 0.0 1.0 0.00 0.00 0.00 54 1012.7
20260904191542 95 290 0.0 1.0 0.00 0.00 0.00 53 1012.2
20260904190036 95 307 0.0 1.0 0.00 0.00 0.00 53 1012.5
20260904184532 95 281 0.0 2.0 0.00 0.00 0.00 52 1013.0
20260904183030 95 271 0.0 1.0 0.00 0.00 0.00 52 1013.1
20260904181533 94 268 0.0 2.0 0.00 0.00 0.00 52 1013.2
20260904180028 94 283 0.0 1.0 0.00 0.00 0.00 53 1013.4
20260904174530 94 282 0.0 2.0 0.00 0.00 0.00 55 1013.8
20260904173044 94 280 0.0 2.0 0.00 0.00 0.00 53 1014.2
20260904171523 93 276 0.0 2.0 0.00 0.00 0.00 54 1014.1
20260904170023 94 265 0.0 2.0 0.00 0.00 0.00 55 1014.3
20260904164520 93 273 0.0 2.0 0.00 0.00 0.00 57 1014.4
20260904163018 93 276 0.0 1.0 0.00 0.00 0.00 60 1014.3
20260904161516 92 291 0.0 1.0 0.00 0.00 0.00 59 1014.3
20260904160015 92 274 0.0 1.0 0.00 0.00 0.00 60 1014.5
20260904154513 91 273 0.0 1.0 0.00 0.00 0.00 62 1014.6
20260904153012 91 302 0.0 1.0 0.00 0.00 0.00 64 1014.6